Regional Weather Roundup
Issued by NWS

Home | Current Version | Previous Version | Graphics & Text | Print | Product List | Glossary On
Versions: 1 2 3 4 5 6 7 8 9 10 11 12 13 14 15 16 17 18 19 20 21 22 23 24 25 26 27 28 29 30 31 32 33 34 35 36 37 38 39 40 41 42 43 44 45 46 47 48
000
ASUS45 KBOI 242310
RWRID
WEATHER ROUNDUP FOR IDAHO
NATIONAL WEATHER SERVICE BOISE ID
500 PM MDT THU JUL 24 2014

NOTE: "FAIR" INDICATES FEW OR NO CLOUDS BELOW 12000 FEET
WITH NO SIGNIFICANT WEATHER AND/OR OBSTRUCTIONS TO VISIBILITY

IDZ012-014-250000-
SOUTHWEST IDAHO


CITY           SKY/WX    TMP DP  RH WIND       PRES   REMARKS
BOISE          SUNNY     75  29  18 W8G17     30.11F
CALDWELL       SUNNY     75  36  23 N8        30.14F
MOUNTAIN HOME  SUNNY     78  20  11 NW17      30.10F
$$

IDZ016-017-250000-
SOUTHCENTRAL IDAHO


CITY           SKY/WX    TMP DP  RH WIND       PRES   REMARKS
BURLEY         SUNNY     73  41  31 W10G20    30.11F
JEROME         SUNNY     74  33  22 W21       30.12F
TWIN FALLS     SUNNY     77  37  23 W16G24    30.13F
$$

IDZ019>023-250000-
SOUTHEAST IDAHO


CITY           SKY/WX    TMP DP  RH WIND       PRES   REMARKS
IDAHO FALLS    SUNNY     80  33  18 SW24G33   30.07F
POCATELLO      SUNNY     79  37  22 SW23G31   30.11F
REXBURG        SUNNY     79  31  17 SW24G36   30.05F
$$

IDZ006-010-011-018-031-032-250000-
CENTRAL IDAHO MOUNTAINS


CITY           SKY/WX    TMP DP  RH WIND       PRES   REMARKS
MCCALL         SUNNY     68  25  19 VRB6      30.17F
HAILEY         SUNNY     75  27  16 S12       30.12F
STANLEY          N/A     71  14  11 N10       30.20F
SALMON         SUNNY     81  28  15 NE8       29.97S
CHALLIS        SUNNY     78  15   9 E9        30.06F
$$

IDZ002-004-006-007-026-250000-
NORTHERN IDAHO


CITY           SKY/WX    TMP DP  RH WIND       PRES   REMARKS
LEWISTON       MOSUNNY   76  40  27 NW13G21   30.10F
LOWELL           N/A     84  39  20 MISG      30.07F
COEUR D`ALENE  CLOUDY    63  43  48 W13G22    30.12R
MULLAN PASS    CLOUDY    44  37  76 SW10G22   30.19S
$$



USA.gov is the U.S. government's official web portal to all federal, state and local government web resources and services.